Probability
0 0 0 0 0 0 0 0 0 0 0 0 0 0 0 0 0 0 0 0 0 0 0 0 0 0 0 0 0 0 0 0 0 0 0 0 0 0
0 0 0 0 0 0 0 0 0 0 0 0 0 0 0 0 0 0 0 0 0 0 0 0 0 0 0 0 0 0 0 0 0 0 0 0 0 0
0 0 0 0 0 0 0 0 0 0 0 0 0 0 0 0 0 0 0 0 0 0 0 0 0 0 0 0 0 0 0 0 0 0 0 0 0 0
0 0 0 0 0 0 0 0 0 0 0 0 0 0 0 0 0 0 0 0 0 0 0 0 0 0 0 0 0 0 0 0 0 0 0 0 0 0
0 0 0 0 0 0 0 0 0 0 0 0 0 0 0 0 0 0 0 0 0 0 0 0 0 0 0 0 0 0 0 0 0 0 0 0 0 0
0 0 0 0 0 0 0 0 0 0 0 0 0 0 0 0 0 0 0 0 0 0 0 0 0 0 0 0 0 0 0 0 0 0 0 0 0 0
0 0 0 0 0 0 0 0 0 0 0 0 0 0 0 0 0 0 0 0 0 0 0 0 0 0 0 0 0 0 0 0 0 0 0 0 0 0
0 0 0 0 0 0 0 0 0 0 0 0 0 0 0 0 0 0 0 0 0 0 0 0 0 0 0 0 0 0 0 0 0 0 0 0 0 0
0 0 0 0 0 0 0 0 0 0 0 0 0 0 0 0 0 0 0 0 0 0 0 0 0 0 0 0 0 0 0 0 0 0 0 0 0 0
0 0 0 0 0 0 0 0 0 0 0 0 0 0 0 0 0 0 0 0 0 0 0 0 0 0 0 0 0 0 0 0 0 0 0 0 0 0
0 0 0 0 0 0 0 0 0 0 0 0 0 0 0 0 0 0 0 0 0 0 0 0 0 0 0 0 0 0 0 0 0 0 0 0 0 0
0 0 0 0 0 0 0 0 0 0 0 0 0 0 0 0 0 0 0 0 0 0 0 0 0 0 0 0 0 0 0 0 0 0 0 0 0 0
0 0 0 0 0 0 0 0 0 0 0 0 0 0 0 0 0 0 0 0 0 0 0 0 0 0 0 0 0 0 0 0 0 0 0 0 0 0
0 0 0 0 0 0 0 0 0 0 0 0 0 0 0 0 0 0 0 0 0 0 0 0 0 0 0 0 0 0 0 0 0 0 0 0 0 0
0 0 0 0 0 0 0 0 0 0 0 0 0 0 0 0 0 0 0 0 0 0 0 0 0 0 0 0 0 0 0 0 0 0 0 0 0 0
0 0 0 0 0 0 0 0 0 0 0 0 0 0 0 0 0 0 0 0 0 0 0 0 0 0 0 0 0 0 0 0 0 0 0 0 0 0
0 0 0 0 0 0 0 0 0 0 0 0 0 0 0 0 0 0 0 0 0 0 0 0 0 0 0 0 0 0 0 0 0 0 0 0 0 0
0 0 0 0 0 0 0 0 0 0 0 0 0 0 0 0 0 0 0 0 0 0 0 0 0 0 0 0 0 0 0 0 0 0 0 0 0 0
0 0 0 0 0 0 0 0 0 0 0 0 0 0 0 0 0 0 0 0 0 0 0 0 0 0 0 0 0 0 0 0 0 0 0 0 0 0
0 0 0 0 0 0 0 0 0 0 0 0 0 0 0 0 0 0 0 0 0 0 0 0 0 0 0 0 0 0 0 0 0 0 0 0 0 0
0 0 0 0 0 0 0 0 0 0 0 0 0 0 0 0 0 0 0 0 0 0 0 0 0 0 0 0 0 0 0 0 0 0 0 0 0 0
0 0 0 0 0 0 0 0 0 0 0 0 0 0 0 0 0 0 0 0 0 0 0 0 0 0 0 0 0 0 0 0 0 0 0 0 0 0
0 0 0 0 0 0 0 0 0 0 0 0 0 0 0 0 0 0 0 0 0 0 0 0 0 0 0 0 0 0 0 0 0 0 0 0 0 0
Wind_Speed
3 3 3 2 2 2 3 3 3 4 4 3 2 2 1 2 2 3 2 2 3 3 3 3 4 4 4 4 5 5 5 6 6 7 7 6 5 5
2 2 2 2 2 2 3 3 3 4 3 2 2 2 2 2 2 3 3 2 2 3 3 3 3 4 4 4 5 5 5 6 7 7 6 6 6 5
2 3 3 3 2 2 2 3 3 3 4 3 2 2 2 3 2 2 3 3 2 2 3 3 3 3 4 4 5 5 5 6 7 7 7 7 7 6
3 3 3 3 3 3 3 3 3 3 4 4 2 2 3 3 3 3 2 2 3 2 3 3 3 3 4 4 4 5 5 5 6 6 6 6 6 6
3 3 3 3 4 3 3 3 3 3 3 3 3 2 2 2 2 2 3 3 3 3 3 3 3 4 4 3 4 4 4 5 5 5 6 6 6 6
3 3 4 4 4 4 4 4 3 3 3 3 3 2 2 2 2 2 2 2 3 3 3 3 3 4 4 3 3 3 4 4 4 5 5 5 6 6
3 3 3 4 4 4 3 3 4 3 3 3 3 3 3 2 3 2 3 3 3 2 3 2 2 3 2 2 2 3 3 4 4 5 5 5 5 6
3 3 3 3 3 4 4 5 5 5 5 5 4 5 5 4 3 3 3 3 3 2 2 3 2 3 2 2 3 4 4 4 4 4 4 4 5 5
4 4 3 3 4 4 4 4 5 6 7 6 6 6 6 5 4 4 4 4 4 2 3 4 3 4 3 3 5 5 4 4 4 4 4 5 5 5
5 5 5 5 4 4 4 4 4 4 5 5 5 6 5 4 4 4 4 3 4 3 2 4 3 4 3 3 4 5 5 5 5 5 5 5 5 5
4 5 5 5 6 6 5 5 5 4 5 7 7 6 6 5 4 3 3 3 3 3 2 3 3 3 3 3 3 4 5 5 5 5 5 5 5 6
3 4 5 7 7 7 6 6 6 5 4 4 5 5 4 4 5 5 4 4 3 3 2 2 2 1 2 2 2 3 3 4 4 4 5 5 5 4
4 4 4 6 8 8 7 6 6 5 4 4 4 3 3 3 3 3 4 4 5 4 2 2 3 3 3 2 3 3 3 3 3 3 4 5 6 5
4 4 4 7 8 8 6 6 6 4 3 3 3 4 3 3 3 3 3 3 4 5 4 4 4 4 3 3 3 3 3 3 3 3 3 5 6 7
4 6 7 7 7 6 6 5 4 3 4 4 4 4 3 3 2 2 1 2 3 3 4 5 5 5 5 5 4 3 3 3 3 3 3 4 4 4
4 4 6 6 5 4 3 3 3 3 4 4 4 3 2 2 3 2 2 2 2 2 2 3 4 5 5 5 5 5 4 3 3 3 3 4 4 4
3 3 3 3 3 3 2 3 3 3 4 4 4 3 3 3 3 3 3 3 3 3 3 2 1 2 4 5 5 5 5 4 4 3 3 4 4 4
4 3 4 4 4 4 4 4 4 4 4 4 4 4 4 4 3 3 3 4 4 4 3 2 2 2 2 3 6 6 4 4 3 3 4 4 5 4
4 4 4 4 4 4 4 4 4 4 3 4 4 4 4 4 4 4 4 4 4 4 3 3 3 3 4 4 3 6 5 3 3 3 4 4 6 5
4 5 5 4 4 4 4 4 4 3 3 4 4 4 4 4 4 4 4 4 4 3 3 3 4 4 5 4 3 3 6 5 4 4 4 4 5 6
4 4 4 4 4 4 4 4 4 4 4 4 4 4 4 4 4 5 4 5 5 4 5 4 3 3 2 2 3 3 4 6 6 4 4 4 4 4
4 4 4 4 4 4 4 4 4 4 4 4 4 4 4 5 5 6 5 5 4 5 5 3 2 2 3 5 5 4 4 3 4 7 8 7 4 4
5 4 4 4 4 4 4 5 5 4 4 4 4 4 4 4 5 5 5 5 4 4 3 3 3 3 3 4 5 4 5 4 3 3 4 6 10 11
Wind_Direction
244 239 233 237 239 242 238 233 234 234 237 237 233 234 256 266 293 276 279 333 322 323 329 332 332 330 327 323 321 322 322 324 324 324 316 322 319 319
237 242 247 245 235 238 233 244 249 241 238 235 245 250 248 264 280 273 276 274 298 304 307 322 329 326 323 319 317 321 324 324 324 319 317 316 314 306
243 237 243 247 242 240 236 237 240 234 240 257 255 246 251 263 270 269 276 275 267 294 291 299 305 310 314 313 316 317 320 322 321 316 313 309 310 303
245 244 243 239 241 244 240 241 241 238 236 247 246 241 256 266 271 268 275 278 272 285 281 285 292 302 304 309 309 312 318 321 322 319 316 316 317 315
246 243 246 238 239 239 240 242 243 244 242 241 252 253 253 263 268 275 278 277 282 279 268 269 282 291 293 296 304 313 320 323 322 320 318 320 320 316
257 253 252 247 243 240 237 236 234 235 233 234 244 249 253 262 257 263 275 280 287 300 278 276 279 276 280 285 300 311 315 315 314 315 317 319 321 321
256 258 257 255 259 256 247 238 231 232 229 230 239 248 243 240 243 261 269 286 288 292 283 279 275 269 266 261 269 285 296 301 303 305 309 315 319 317
250 254 253 245 247 254 253 248 242 234 232 233 238 238 244 246 250 243 250 266 275 270 276 284 277 269 272 264 273 279 282 293 298 299 303 310 312 314
246 247 249 249 244 243 244 245 245 246 243 242 239 240 244 240 238 240 245 258 267 267 274 275 277 271 282 269 263 264 273 284 289 293 296 301 306 307
247 247 246 246 244 241 241 239 240 241 244 245 246 249 252 247 237 246 256 278 288 278 262 262 275 281 290 275 255 258 269 273 279 288 293 296 300 300
252 250 246 246 243 243 241 237 242 245 247 248 251 256 253 246 238 230 227 232 257 264 255 253 261 286 285 271 263 268 278 279 275 281 288 293 297 296
253 251 247 246 241 241 240 235 239 245 246 251 251 252 245 227 219 225 225 227 241 255 219 226 229 255 277 268 275 276 276 275 282 280 280 283 291 288
252 254 253 249 249 245 243 241 243 248 242 241 244 247 245 234 231 237 242 232 233 243 215 226 231 233 235 264 280 270 265 272 275 275 274 280 284 282
256 260 260 258 257 250 248 238 236 240 234 235 240 241 239 237 237 241 249 260 267 259 241 235 235 230 231 245 256 265 264 266 264 263 264 274 277 279
265 266 266 263 265 253 243 236 234 229 228 231 235 240 242 240 238 238 242 250 266 260 242 237 234 233 231 233 242 248 262 263 251 255 265 269 269 269
260 268 265 262 261 255 242 235 234 233 233 235 237 238 236 231 231 230 234 241 259 265 243 233 236 232 235 235 234 242 242 244 249 259 267 269 267 258
257 265 261 253 240 236 239 239 235 228 229 231 228 227 226 227 229 224 226 231 238 247 254 227 233 247 247 235 233 234 238 248 249 255 262 265 261 256
256 246 238 236 237 238 237 238 233 233 233 230 227 223 223 225 228 226 224 225 233 238 246 233 214 229 230 240 225 234 240 247 255 255 256 263 267 262
243 234 236 237 238 239 240 238 237 236 233 230 227 225 224 224 224 224 225 228 234 239 242 228 217 218 234 251 225 216 233 245 247 251 254 260 265 272
238 235 235 238 238 239 240 240 239 232 226 229 228 226 223 224 225 227 226 227 233 239 242 233 228 228 233 250 255 241 229 235 237 247 258 269 271 274
244 244 239 238 240 241 244 243 239 232 227 226 226 225 223 224 228 230 231 226 230 233 239 244 246 241 247 241 243 248 236 232 238 245 252 266 273 267
250 250 247 244 240 238 239 240 239 234 226 224 224 224 222 223 228 230 230 229 231 237 247 253 233 218 215 222 236 249 257 252 250 255 254 250 250 254
250 252 252 247 240 235 234 234 232 233 230 227 225 224 222 223 226 227 227 229 233 235 234 235 234 231 233 230 238 246 252 258 265 265 264 262 262 267